Weather observations for the past three days for
Alexandria, Alexandria International Airport
Imperial (Metric)
Date Time (cdt) Wind (mph) Vis. (mi.) Weather Sky Cond. Temperature (ºF) Relative Humidity Wind Chill (°F) Heat Index (°F) Pressure Precipitation (in)
Air Dwpt 6 hour altimeter (in) sea level (mb) 1 hr 3 hr 6 hr
Max. Min.
20 04:53 NE 6 10.00 Fair CLR 75 73 94% 73 30.08 1018.8
20 03:53 E 6 10.00 Fair CLR 75 73 94% 73 30.07 1018.4
20 02:53 E 6 10.00 Fair CLR 75.9 73 91% 76 30.07 1018.3
20 01:53 NE 3 10.00 A Few Clouds FEW031 75.9 73 91% 76 30.08 1018.7
20 00:53 E 6 10.00 Fair CLR 75.9 73 84 75.9 91% 76 30.07 1018.5 0.06
19 23:53 E 7 10.00 Fair CLR 77 73.9 90% 78 30.07 1018.6
19 22:53 E 6 10.00 Fair CLR 77 73.9 90% 78 30.07 1018.6
19 21:53 E 9 10.00 Mostly Cloudy BKN060 78.1 73.9 87% 81 30.06 1018.3 0.06
19 20:53 E 7 10.00 A Few Clouds FEW110 78.1 75 90% 81 30.04 1017.5 0.06
19 19:53 E 6 10.00 A Few Clouds FEW043 FEW120 84 75 74% 92 30.02 1016.8
19 18:53 E 6 10.00 Fair CLR 84 75.9 91.9 82.9 77% 93 30 1016.2 0.02
19 17:53 E 8 10.00 A Few Clouds FEW080 84.9 75.9 75% 94 29.98 1015.6 0.02
19 16:53 E 9 10.00 Fair CLR 89.1 73.9 61% 98 29.98 1015.6
19 15:53 NE 9 G 18 10.00 Fair CLR 89.1 75 63% 99 29.99 1015.7
19 14:53 E 9 G 22 10.00 Mostly Cloudy FEW039 SCT060 BKN080 89.1 73.9 61% 98 30 1016.3
19 13:53 E 12 G 20 10.00 Fair CLR 88 73.9 63% 97 30.02 1016.8
19 12:53 NE 14 G 21 10.00 Partly Cloudy SCT027 87.1 73.9 88 75 65% 95 30.02 1017.0
19 11:53 E 13 G 23 10.00 A Few Clouds FEW028 87.1 75 67% 97 30.03 1017.1
19 10:53 E 9 G 17 10.00 Fair CLR 84 75 74% 92 30.03 1017.1
19 09:53 NE 6 10.00 Fair CLR 80.1 73 79% 84 30.02 1016.9
19 08:53 E 8 10.00 Fair CLR 78.1 72 82% 80 30.01 1016.4
19 07:53 NE 8 10.00 Fair CLR 75 72 90% 74 29.99 1015.7
19 06:53 NE 9 8.00 Light Rain FEW110 75 72 75.9 73.9 90% 74 29.97 1015.2 0.01
19 05:53 NE 7 9.00 Light Rain CLR 75 73 94% 73 29.96 1014.7 0.01
19 04:53 E 6 8.00 Light Rain FEW110 75 73 94% 73 29.95 1014.3
19 03:53 E 6 9.00 A Few Clouds FEW120 75 73 94% 73 29.93 1013.6
19 02:53 E 5 8.00 Fair CLR 75 73 94% 73 29.93 1013.8
19 01:53 E 6 8.00 Fair CLR 75 73.9 96% 73 29.93 1013.6
19 00:53 E 7 8.00 Fair CLR 75.9 73.9 77 75.9 94% 75 29.94 1014.0 0.03
18 23:53 NE 6 7.00 Fair CLR 75.9 73.9 94% 75 29.94 1014.2
18 22:53 E 6 7.00 Fair CLR 75.9 75 97% 75 29.95 1014.3
18 21:53 NE 5 7.00 Light Rain CLR 77 75 94% 78 29.95 1014.3 0.01 0.03
18 20:53 E 6 8.00 Light Rain BKN020 BKN029 77 75 94% 78 29.95 1014.3
18 19:53 NE 8 8.00 Light Rain FEW080 FEW110 77 75 94% 78 29.95 1014.3 0.02
18 18:53 E 7 7.00 Light Rain FEW075 SCT100 BKN110 77 75 86 77 94% 78 29.94 1014.1 0.02 0.02
18 17:53 E 7 7.00 Light Rain FEW019 BKN090 OVC110 79 75 88% 83 29.93 1013.8
18 16:53 SE 14 10.00 Partly Cloudy FEW023 SCT039 82 73 74% 87 29.93 1013.8
18 15:53 SE 18 G 26 10.00 Partly Cloudy FEW025 SCT034 SCT060 82.9 73 72% 89 29.93 1013.6
18 14:53 E 15 G 21 10.00 Mostly Cloudy SCT023 BKN100 84.9 75 72% 93 29.93 1013.6
18 13:53 E 15 G 20 10.00 Mostly Cloudy SCT024 BKN030 86 75.9 72% 96 29.93 1013.7
18 12:53 E 12 10.00 Mostly Cloudy SCT022 BKN027 BKN035 84.9 75 84.9 75 72% 93 29.94 1014.1
18 11:53 E 8 10.00 Overcast BKN018 OVC024 82.9 75.9 79% 91 29.94 1014.1
18 10:53 E 12 G 20 10.00 Partly Cloudy SCT016 82 75 79% 89 29.93 1013.8
18 09:53 E 6 10.00 Fair CLR 80.1 75 85% 85 29.93 1013.8
18 08:53 E 8 10.00 Mostly Cloudy BKN009 79 75 88% 83 29.93 1013.7
18 07:53 E 3 10.00 Overcast OVC008 77 73.9 90% 78 29.93 1013.6
18 06:53 NE 13 G 18 9.00 Overcast SCT006 BKN070 OVC100 75 73.9 75.9 75 96% 73 29.9 1012.7
18 05:53 E 7 10.00 Overcast FEW065 OVC095 75 73.9 96% 73 29.9 1012.7
18 04:53 E 6 10.00 Overcast OVC100 75 73 94% 73 29.9 1012.7
18 03:53 E 5 10.00 Overcast OVC014 75 73 94% 73 29.9 1012.7
18 02:53 E 3 10.00 Mostly Cloudy BKN110 75 73 94% 73 29.9 1012.7
18 01:53 E 6 10.00 Fair CLR 75 73 94% 73 29.9 1012.8
18 00:53 E 5 10.00 Fair CLR 75.9 73 79 75 91% 76 29.92 1013.6
17 23:53 E 3 10.00 Overcast BKN022 OVC029 75.9 73 91% 76 29.95 1014.4
17 22:53 E 6 10.00 Fair CLR 75.9 72 88% 76 29.96 1014.8
17 21:53 SE 8 10.00 A Few Clouds FEW120 75.9 72 88% 76 29.95 1014.4
17 20:53 E 3 10.00 Fair CLR 77 73 88% 78 29.94 1014.0
17 19:53 SE 5 10.00 Fair CLR 77 73 88% 78 29.94 1014.1
17 18:53 SE 12 10.00 Fair CLR 79 73 90 73 82% 82 29.93 1013.8 0.19
17 17:53 E 3 10.00 Mostly Cloudy FEW008 BKN020 77 75 94% 78 29.93 1013.7
17 16:53 E 9 10.00 Partly Cloudy FEW040 SCT050 77 73.9 90% 78 29.93 1013.7 0.18
17 15:53 S 18 G 41 9.00 Thunderstorm in Vicinity Light Rain FEW028 SCT034 BKN060 75.9 69.1 79% 77 29.95 1014.3 0.01
17 14:53 SE 15 10.00 Mostly Cloudy SCT030 BKN038 BKN085 84.9 75.9 75% 94 29.91 1013.0 0.01
17 13:53 S 8 10.00 Partly Cloudy FEW023 SCT031 SCT060 87.1 75.9 70% 98 29.92 1013.4
17 12:53 SE 14 10.00 Overcast BKN024 OVC031 84.9 75 87.1 77 72% 93 29.93 1013.9
17 11:53 SE 6 10.00 A Few Clouds FEW026 FEW035 82.9 72 70% 88 29.95 1014.5
17 10:53 Calm 10.00 Fair CLR 81 71.1 72% 85 29.95 1014.6
17 09:53 S 5 10.00 A Few Clouds FEW013 79 73.9 85% 83 29.96 1014.8
17 08:53 S 9 9.00 Mostly Cloudy BKN016 79 75 88% 83 29.96 1014.9
17 07:53 SE 8 8.00 Overcast OVC008 78.1 75.9 93% 81 29.94 1014.0
17 06:53 SE 5 8.00 Overcast OVC006 77 75.9 77 75 96% 78 29.92 1013.5
17 05:53 SE 6 9.00 Overcast OVC007 75.9 75 97% 75 29.92 1013.4
Date Time (cdt) Wind (mph) Vis. (mi.) Weather Sky Cond. Air Dwpt Max. Min. Relative Humidity Wind Chill (°F) Heat Index (°F) altimeter (in) sea level (mb) 1 hr 3 hr 6 hr
6 hour
Temperature (ºF) Pressure Precipitation (in)